Knoxville, IA

6:16 AM CDT on June 28, 2017 (GMT -0500)
Knoxville Municipal

Weather History for KOXV - March, 2014

Change the Weather History Date:

Monday, March 10, 2014

  Actual Average Record
Temperature  
Mean Temperature 54 °F -  
Max Temperature 66 °F 47 °F 72 °F (1955)
Min Temperature 41 °F 27 °F 3 °F (1998)
Degree Days  
Heating Degree Days 12    
Growing Degree Days 4 (Base 50)    
Moisture  
Dew Point 37 °F    
Average Humidity 56    
Maximum Humidity 76    
Minimum Humidity 37    
Precipitation  
Precipitation 0.00 in - - ()
Sea Level Pressure  
Sea Level Pressure 29.74 in    
Wind  
Wind Speed 10 mph (WSW)    
Max Wind Speed 15 mph    
Max Gust Speed 20 mph    
Visibility 10 miles    
Events      
Averages and records for this station are not official NWS values.
T = Trace of Precipitation, MM = Missing Value Source: NWS Daily Summary

Daily Weather History Graph

Daily Weather History Graph

Search for Another Location

Airport or City:

Trip Planner

Search our weather history database for the weather conditions in past years. The results will help you decide how hot, cold, wet, or windy it might be!

Date:

Astronomy

Mar. 10, 2014 Rise Set
Actual Time 7:32 AM CDT 7:13 PM CDT
Civil Twilight 7:04 AM CDT 7:41 PM CDT
Nautical Twilight 6:32 AM CDT 8:13 PM CDT
Astronomical Twilight 6:00 AM CDT 8:45 PM CDT
Moon 1:55 PM CDT (3/10) 3:47 AM CDT (3/10)
Length of Visible Light 12h 36m
Length of Day
11h 41m
Waxing Gibbous, 70% of the Moon is Illuminated
Mar 10
Waxing Gibbous
Mar 16
Full
Mar 23
Last Quarter
Mar 30
New
Apr 7
First Quarter

Hourly Weather History & Observations

Time (CDT) Temp. Windchill Dew Point Humidity Pressure Visibility Wind Dir Wind Speed Gust Speed Precip Events Conditions
12:15 AM 50.0 °F - 32.0 °F 50% 29.81 in 10.0 mi SW 15.0 mph - N/A   Scattered Clouds
12:35 AM 48.2 °F - 32.0 °F 54% 29.80 in 10.0 mi SW 11.5 mph 19.6 mph N/A   Partly Cloudy
12:55 AM 48.2 °F - 32.0 °F 54% 29.80 in 10.0 mi SW 12.7 mph 18.4 mph N/A   Scattered Clouds
1:15 AM 48.2 °F - 32.0 °F 54% 29.80 in 10.0 mi WSW 13.8 mph - N/A   Mostly Cloudy
1:35 AM 46.4 °F 40.7 °F 32.0 °F 57% 29.79 in 10.0 mi WSW 12.7 mph 18.4 mph N/A   Mostly Cloudy
1:55 AM 46.4 °F 40.7 °F 32.0 °F 57% 29.80 in 10.0 mi SW 12.7 mph 19.6 mph N/A   Mostly Cloudy
2:15 AM 46.4 °F 40.4 °F 32.0 °F 57% 29.79 in 10.0 mi SW 13.8 mph - N/A   Scattered Clouds
2:35 AM 46.4 °F 40.4 °F 32.0 °F 57% 29.79 in 10.0 mi SW 13.8 mph 19.6 mph N/A   Clear
2:55 AM 46.4 °F 40.1 °F 32.0 °F 57% 29.79 in 10.0 mi SW 15.0 mph - N/A   Clear
3:15 AM 46.4 °F 40.1 °F 32.0 °F 57% 29.78 in 10.0 mi SW 15.0 mph - N/A   Partly Cloudy
3:35 AM 46.4 °F 40.1 °F 32.0 °F 57% 29.76 in 10.0 mi SW 15.0 mph - N/A   Mostly Cloudy
3:55 AM 46.4 °F 40.1 °F 32.0 °F 57% 29.75 in 10.0 mi SW 15.0 mph - N/A   Overcast
4:15 AM 46.4 °F 40.4 °F 32.0 °F 57% 29.75 in 10.0 mi WSW 13.8 mph - N/A   Overcast
4:35 AM 46.4 °F 41.1 °F 32.0 °F 57% 29.75 in 10.0 mi SW 11.5 mph - N/A   Overcast
4:50 AM 44.6 °F 38.4 °F 32.0 °F 61% 29.74 in 10.0 mi SW 12.7 mph - N/A   Overcast
5:15 AM 44.6 °F 38.4 °F 32.0 °F 61% 29.74 in 10.0 mi SW 12.7 mph - N/A   Overcast
5:35 AM 44.6 °F 37.8 °F 32.0 °F 61% 29.74 in 10.0 mi SW 15.0 mph - N/A   Overcast
5:55 AM 44.6 °F 38.4 °F 32.0 °F 61% 29.75 in 10.0 mi SW 12.7 mph - N/A   Overcast
6:15 AM 44.6 °F 38.1 °F 32.0 °F 61% 29.74 in 10.0 mi SW 13.8 mph - N/A   Overcast
6:35 AM 44.6 °F 39.2 °F 32.0 °F 61% 29.75 in 10.0 mi WSW 10.4 mph - N/A   Overcast
6:55 AM 44.6 °F 39.2 °F 32.0 °F 61% 29.75 in 10.0 mi WSW 10.4 mph - N/A   Overcast
7:15 AM 44.6 °F 39.2 °F 32.0 °F 61% 29.75 in 10.0 mi SW 10.4 mph - N/A   Overcast
7:35 AM 41.0 °F 35.2 °F 32.0 °F 70% 29.76 in 10.0 mi WSW 9.2 mph - N/A   Mostly Cloudy
7:55 AM 41.0 °F 35.8 °F 30.2 °F 65% 29.76 in 10.0 mi WSW 8.1 mph - N/A   Partly Cloudy
8:15 AM 42.8 °F 39.3 °F 30.2 °F 61% 29.76 in 10.0 mi SW 5.8 mph 11.5 mph N/A   Clear
8:35 AM 42.8 °F 37.5 °F 32.0 °F 66% 29.76 in 10.0 mi SW 9.2 mph - N/A   Clear
8:55 AM 44.6 °F 38.4 °F 32.0 °F 61% 29.75 in 10.0 mi SW 12.7 mph - N/A   Clear
9:15 AM 44.6 °F 39.2 °F 32.0 °F 61% 29.75 in 10.0 mi WSW 10.4 mph - N/A   Clear
9:30 AM 46.4 °F 41.5 °F 32.0 °F 57% 29.75 in 10.0 mi WSW 10.4 mph - N/A   Clear
9:55 AM 48.2 °F - 33.8 °F 58% 29.76 in 10.0 mi WSW 6.9 mph - N/A   Clear
10:15 AM 50.0 °F - 33.8 °F 54% 29.76 in 10.0 mi WSW 8.1 mph - N/A   Clear
10:35 AM 51.8 °F - 33.8 °F 50% 29.76 in 10.0 mi West 9.2 mph - N/A   Clear
10:55 AM 51.8 °F - 35.6 °F 54% 29.76 in 10.0 mi West 9.2 mph - N/A   Clear
11:15 AM 53.6 °F - 35.6 °F 51% 29.76 in 10.0 mi West 9.2 mph - N/A   Clear
11:35 AM 55.4 °F - 37.4 °F 51% 29.76 in 10.0 mi West 10.4 mph - N/A   Clear
11:55 AM 57.2 °F - 37.4 °F 48% 29.76 in 10.0 mi West 6.9 mph - N/A   Clear
12:15 PM 57.2 °F - 37.4 °F 48% 29.75 in 10.0 mi West 6.9 mph - N/A   Clear
12:35 PM 59.0 °F - 39.2 °F 48% 29.75 in 10.0 mi West 9.2 mph - N/A   Clear
12:55 PM 60.8 °F - 39.2 °F 45% 29.75 in 10.0 mi West 6.9 mph - N/A   Clear
1:15 PM 60.8 °F - 39.2 °F 45% 29.74 in 10.0 mi WSW 6.9 mph - N/A   Clear
1:35 PM 62.6 °F - 39.2 °F 42% 29.73 in 10.0 mi WSW 8.1 mph - N/A   Clear
1:55 PM 64.4 °F - 39.2 °F 40% 29.73 in 10.0 mi West 6.9 mph - N/A   Clear
2:15 PM 66.2 °F - 41.0 °F 40% 29.72 in 10.0 mi WSW 6.9 mph - N/A   Clear
2:35 PM 66.2 °F - 39.2 °F 37% 29.72 in 10.0 mi West 8.1 mph - N/A   Clear
2:55 PM 66.2 °F - 41.0 °F 40% 29.71 in 10.0 mi West 6.9 mph - N/A   Clear
3:15 PM 64.4 °F - 41.0 °F 42% 29.71 in 10.0 mi West 6.9 mph - N/A   Clear
3:35 PM 66.2 °F - 41.0 °F 40% 29.71 in 10.0 mi Calm Calm - N/A   Clear
3:55 PM 66.2 °F - 41.0 °F 40% 29.71 in 10.0 mi West 5.8 mph - N/A   Clear
4:15 PM 66.2 °F - 41.0 °F 40% 29.70 in 10.0 mi WNW 6.9 mph - N/A   Clear
4:35 PM 66.2 °F - 41.0 °F 40% 29.70 in 10.0 mi Variable 4.6 mph - N/A   Clear
4:55 PM 66.2 °F - 41.0 °F 40% 29.69 in 10.0 mi NNW 4.6 mph - N/A   Clear
5:15 PM 66.2 °F - 39.2 °F 37% 29.69 in 10.0 mi NW 5.8 mph - N/A   Clear
5:35 PM 66.2 °F - 41.0 °F 40% 29.70 in 10.0 mi NNW 4.6 mph - N/A   Clear
5:55 PM 64.4 °F - 42.8 °F 45% 29.69 in 10.0 mi North 5.8 mph - N/A   Clear
6:15 PM 62.6 °F - 42.8 °F 48% 29.70 in 10.0 mi NNW 5.8 mph - N/A   Clear
6:35 PM 60.8 °F - 41.0 °F 48% 29.70 in 10.0 mi North 4.6 mph - N/A   Clear
6:55 PM 60.8 °F - 41.0 °F 48% 29.70 in 10.0 mi Calm Calm - N/A   Clear
7:15 PM 57.2 °F - 41.0 °F 55% 29.70 in 10.0 mi Calm Calm - N/A   Clear
7:35 PM 57.2 °F - 42.8 °F 59% 29.70 in 10.0 mi NNE 4.6 mph - N/A   Clear
7:55 PM 55.4 °F - 42.8 °F 63% 29.70 in 10.0 mi NE 4.6 mph - N/A   Clear
8:15 PM 55.4 °F - 42.8 °F 63% 29.70 in 10.0 mi NE 5.8 mph - N/A   Clear
8:35 PM 53.6 °F - 42.8 °F 67% 29.70 in 10.0 mi NE 4.6 mph - N/A   Clear
8:55 PM 51.8 °F - 42.8 °F 71% 29.71 in 10.0 mi ENE 4.6 mph - N/A   Clear
9:15 PM 51.8 °F - 42.8 °F 71% 29.70 in - East 6.9 mph - N/A   Clear
9:35 PM 51.8 °F - 42.8 °F 71% 29.70 in 10.0 mi East 4.6 mph - N/A   Clear
9:55 PM 51.8 °F - 42.8 °F 71% 29.69 in 10.0 mi East 5.8 mph - N/A   Clear
10:10 PM 50.0 °F - 42.8 °F 76% 29.70 in 10.0 mi East 4.6 mph - N/A   Clear
10:40 PM 48.2 °F - 41.0 °F 76% 29.69 in 10.0 mi ENE 6.9 mph - N/A   Clear
10:55 PM 48.2 °F - 41.0 °F 76% 29.69 in 10.0 mi ENE 5.8 mph - N/A   Clear
11:15 PM 46.4 °F 44.3 °F 39.2 °F 76% 29.69 in 10.0 mi ENE 4.6 mph - N/A   Clear
11:35 PM 46.4 °F 42.9 °F 39.2 °F 76% 29.68 in 10.0 mi ENE 6.9 mph - N/A   Clear
11:55 PM 46.4 °F 43.5 °F 39.2 °F 76% 29.68 in 10.0 mi East 5.8 mph - N/A   Clear